MINOTAUR 4 DEB, 52037

Orbit data source: Space-Track

MINOTAUR 4 DEB, 52037 is space debris in LEO originally from a launch on Wed, 15 Jul 2020 UTC launched from the Wallops Island (WLPIS). Debris objects in space refer to the collection of defunct objects orbiting the Earth. Examples of debris include non-operational satellites, rocket bodies, and fragments generated from explosions, collisions, or faulty payload assembly.

Loading next visibility...
Identifier
52037, 2020-046AB
Orbit
LEO
Last TLE update
16 hours ago
Origin
Manufacturer
NGIS FSG
Mission
Spacecraft
Bus & Motor
Unknown
Mass
Unknown
Launch date (UTC)
2020-07-15 (5 years ago)
Launch vehicle
Unknown
Launch site
Wallops Island (WLPIS)
Object type
Payload
Rocket body
Debris
Shape & HBR
Unknown
Radar Cross Section
Small (<0.1 m²)

Expand to show TLE details & history

TLE from 16 hours ago
0 MINOTAUR 4 DEB
1 52037U 20046AB  25181.71476056  .00000658  00000-0  68232-4 0  9996
2 52037  53.9807 339.6021 0010370 109.8905 250.3213 15.03159494188990
Epoch: 2025-06-30T17:09Z
TLE epoch observation values (Epoch: 2025-06-30T17:09:15.312Z)
Latitude
Longitude
163.2677°
Altitude
560.565 km
Speed
7.581 km/s
True Right ascension
22h 38m 24s
True Declination
0° 00' 00"
Sunlit
Object was in full shadow at epoch
Visualization orbit readout
Latitude
50.70603°
Longitude
-81.80684°
Altitude
556.068 km
Speed
7.594 km/s
Apparent Right ascension
07h 50m 46s
Apparent Declination
8° 23' 23"
Sunlit
Object is in daylight
Visualization observer readout
Local Sidereal Time
21:13:32
Azimuth
26.349° NE
Elevation
-38.04°
Doppler factor
1
Orbital elements
Apogee altitude
564.476 km
Perigee altitude
550.092 km
Semi-major axis
6,935.421 km
Eccentricity
0.00104
Inclination
53.9807°
RAAN
339.6021°
Arg. of periapsis
109.8905°
True anomaly
Unknown
Mean anomaly
250.3213°
Eccentric anomaly
Unknown
Mean motion
3.7578 °/min
Orbital period
95.8 mins
BSTAR
0.000068232
Loading maneuver chart data...
Loading SW <> Apogee altitude chart data...
Loading historical data...
Loading historical data...
Loading historical data...
Loading historical data...
Loading historical data...
Loading historical data...
Loading historical data...

MINOTAUR 4 DEB Visibility forecast

Observer location: undefined°, undefined°

Span
Click to sort rows by Start time (UTC) header in descending order
Start Az.
Max El. time (UTC)
Max El. Az.
Max El.
End time (UTC)
End Az.
7 mins2025-07-01 12:27:14.429Z195.208° SSW2025-07-01 12:30:14.429Z143.36° SSE30.12°2025-07-01 12:34:14.429Z64.955° ENE
5 mins2025-07-01 14:08:14.429Z278.535° WNW2025-07-01 14:10:14.429Z327.89° NNW29.167°2025-07-01 14:13:14.429Z28.705° NE
6 mins2025-07-01 19:10:14.429Z335.76° NNW2025-07-01 19:13:14.429Z46.466° ENE28.289°2025-07-01 19:16:14.429Z95.894° ESE
5 mins2025-07-01 20:50:14.429Z282.978° WNW2025-07-01 20:52:14.429Z236.002° WSW30.549°2025-07-01 20:55:14.429Z168.598° S
|